TimeCET,TemperatureF,Dew PointF,Humidity,Sea Level PressureIn,VisibilityMPH,Wind Direction,Wind SpeedMPH,Gust SpeedMPH,PrecipitationIn,Events,Conditions,WindDirDegrees,DateUTC
12:00 AM,51.8,41.0,67,30.01,6.2,Variable,2.3,-,N/A,,Mostly Cloudy,0,2012-11-17 23:00:00
12:30 AM,50.0,41.0,71,30.01,6.2,North,5.8,-,N/A,,Scattered Clouds,10,2012-11-17 23:30:00
1:00 AM,51,41,59,30.01,19,North,4.5,,,,Scattered Clouds,10,2012-11-18 00:00:00
1:00 AM,50.0,41.0,71,30.01,6.2,North,4.6,-,N/A,,Partly Cloudy,10,2012-11-18 00:00:00
1:30 AM,50.0,41.0,71,30.01,6.2,North,5.8,-,N/A,,Scattered Clouds,10,2012-11-18 00:30:00
2:00 AM,50.0,41.0,71,29.98,6.2,NNE,5.8,-,N/A,,Scattered Clouds,20,2012-11-18 01:00:00
2:30 AM,50.0,41.0,71,29.98,6.2,North,6.9,-,N/A,,Scattered Clouds,10,2012-11-18 01:30:00
3:00 AM,50.0,41.0,71,29.98,6.2,NNE,5.8,-,N/A,,Mostly Cloudy,20,2012-11-18 02:00:00
3:30 AM,50.0,41.0,71,29.98,6.2,NNE,4.6,-,N/A,,Mostly Cloudy,20,2012-11-18 02:30:00
4:00 AM,51,42,62,29.99,19,North,6.7,,,,Overcast,10,2012-11-18 03:00:00
4:00 AM,51.8,42.8,71,29.98,6.2,North,5.8,-,N/A,,Mostly Cloudy,10,2012-11-18 03:00:00
4:30 AM,51.8,42.8,71,29.98,6.2,NNE,6.9,-,N/A,,Mostly Cloudy,20,2012-11-18 03:30:00
5:00 AM,52,42,58,29.98,19,NNE,6.7,,,,Overcast,20,2012-11-18 04:00:00
5:00 AM,51.8,41.0,67,29.98,6.2,NNE,5.8,-,N/A,,Mostly Cloudy,20,2012-11-18 04:00:00
5:30 AM,51.8,41.0,67,29.95,6.2,NNE,5.8,-,N/A,,Scattered Clouds,20,2012-11-18 04:30:00
6:00 AM,51,41,60,29.98,19,NNE,6.7,,,,Overcast,20,2012-11-18 05:00:00
6:00 AM,51.8,41.0,67,29.98,6.2,NNE,6.9,-,N/A,,Scattered Clouds,20,2012-11-18 05:00:00
6:30 AM,50.0,41.0,71,29.98,6.2,NNE,5.8,-,N/A,Rain,Light Rain,20,2012-11-18 05:30:00
7:00 AM,51,42,61,29.99,19,NNE,6.7,,,Rain,Light Rain,20,2012-11-18 06:00:00
7:00 AM,51.8,41.0,67,29.98,6.2,NNE,5.8,-,N/A,,Scattered Clouds,20,2012-11-18 06:00:00
7:30 AM,51.8,41.0,67,29.98,6.2,NNE,5.8,-,N/A,,Mostly Cloudy,20,2012-11-18 06:30:00
8:00 AM,51,42,63,30.00,19,West,4.5,,,,Overcast,280,2012-11-18 07:00:00
8:00 AM,51.8,42.8,71,29.98,6.2,Variable,1.2,-,N/A,,Mostly Cloudy,0,2012-11-18 07:00:00
8:30 AM,51.8,42.8,71,29.98,6.2,Variable,2.3,-,N/A,,Mostly Cloudy,0,2012-11-18 07:30:00
9:00 AM,52,44,67,30.01,19,West,4.5,,,,Mostly Cloudy,280,2012-11-18 08:00:00
9:00 AM,51.8,44.6,76,29.98,6.2,West,4.6,-,N/A,,Mostly Cloudy,280,2012-11-18 08:00:00
9:30 AM,51.8,44.6,76,29.98,6.2,NW,4.6,-,N/A,,Mostly Cloudy,310,2012-11-18 08:30:00
10:00 AM,54,45,62,30.00,19,Calm,Calm,,,,Mostly Cloudy,330,2012-11-18 09:00:00
10:00 AM,53.6,44.6,72,29.98,6.2,NNW,4.6,-,N/A,,Mostly Cloudy,330,2012-11-18 09:00:00
10:30 AM,55.4,44.6,67,29.98,6.2,NW,5.8,-,N/A,,Mostly Cloudy,310,2012-11-18 09:30:00
11:00 AM,56,45,57,30.00,19,NW,6.7,,,,Mostly Cloudy,320,2012-11-18 10:00:00
11:00 AM,57.2,44.6,63,29.98,6.2,NW,5.8,-,N/A,,Mostly Cloudy,320,2012-11-18 10:00:00
11:30 AM,57.2,46.4,67,29.98,6.2,NNW,4.6,-,N/A,,Mostly Cloudy,330,2012-11-18 10:30:00
12:00 PM,58,46,53,29.98,19,North,4.5,,,,Mostly Cloudy,10,2012-11-18 11:00:00
12:00 PM,57.2,46.4,67,29.98,6.2,North,4.6,-,N/A,,Mostly Cloudy,10,2012-11-18 11:00:00
12:30 PM,59.0,44.6,59,29.95,6.2,NE,4.6,-,N/A,,Mostly Cloudy,40,2012-11-18 11:30:00
1:00 PM,58,47,59,29.97,19,WSW,6.7,,,,Overcast,240,2012-11-18 12:00:00
1:00 PM,57.2,48.2,72,29.95,6.2,Variable,1.2,-,N/A,,Mostly Cloudy,0,2012-11-18 12:00:00
1:30 PM,57.2,48.2,72,29.95,6.2,Variable,1.2,-,N/A,,Mostly Cloudy,0,2012-11-18 12:30:00
2:00 PM,56,48,67,29.96,19,WSW,6.7,,,,Overcast,240,2012-11-18 13:00:00
2:00 PM,57.2,48.2,72,29.95,6.2,Variable,2.3,-,N/A,,Mostly Cloudy,0,2012-11-18 13:00:00
2:30 PM,55.4,50.0,82,29.95,6.2,Variable,1.2,-,N/A,,Mostly Cloudy,0,2012-11-18 13:30:00
3:00 PM,56,49,71,29.95,16,SW,2.2,,,,Overcast,230,2012-11-18 14:00:00
3:00 PM,55.4,50.0,82,29.95,6.2,Variable,1.2,-,N/A,,Mostly Cloudy,0,2012-11-18 14:00:00
3:30 PM,53.6,50.0,88,29.95,6.2,Variable,2.3,-,N/A,Rain,Light Rain,0,2012-11-18 14:30:00
4:00 PM,53,49,84,29.96,6,West,2.2,,,Rain,Light Rain,270,2012-11-18 15:00:00
4:00 PM,53.6,50.0,88,29.95,6.2,Variable,2.3,-,N/A,Rain,Light Rain,0,2012-11-18 15:00:00
4:30 PM,51.8,50.0,94,29.95,5.0,Variable,2.3,-,N/A,Rain,Light Rain,0,2012-11-18 15:30:00
5:00 PM,53,50,87,29.96,2,NW,2.2,,,Rain,Rain,310,2012-11-18 16:00:00
5:00 PM,51.8,50.0,94,29.95,1.9,Variable,2.3,-,N/A,Rain,Rain,0,2012-11-18 16:00:00
5:30 PM,51.8,50.0,94,29.95,1.9,West,4.6,-,N/A,Rain,Rain,280,2012-11-18 16:30:00
6:00 PM,52,50,92,29.96,2,WNW,6.7,,,Rain,Rain,290,2012-11-18 17:00:00
6:00 PM,51.8,50.0,94,29.95,1.9,West,4.6,-,N/A,Rain,Rain,270,2012-11-18 17:00:00
6:30 PM,51.8,50.0,94,29.95,2.5,Variable,2.3,-,N/A,Rain,Light Rain,0,2012-11-18 17:30:00
7:00 PM,52,51,93,29.96,2,NW,4.5,,,Rain,Rain,320,2012-11-18 18:00:00
7:00 PM,51.8,50.0,94,29.95,6.2,NW,4.6,-,N/A,Rain,Rain,320,2012-11-18 18:00:00
7:30 PM,51.8,50.0,94,29.95,2.2,West,4.6,-,N/A,Rain,Light Rain,280,2012-11-18 18:30:00
8:00 PM,51.8,50.0,94,29.95,1.9,Variable,2.3,-,N/A,Rain,Light Rain,0,2012-11-18 19:00:00
8:30 PM,51.8,50.0,94,29.95,1.9,Variable,1.2,-,N/A,Rain,Light Rain,0,2012-11-18 19:30:00
9:00 PM,51.8,50.0,94,29.95,1.9,Variable,1.2,-,N/A,Rain,Rain,0,2012-11-18 20:00:00
9:30 PM,51.8,50.0,94,29.95,1.9,Variable,1.2,-,N/A,Rain,Light Rain,0,2012-11-18 20:30:00
10:00 PM,51,50,94,29.96,2,WSW,2.2,,,Rain,Light Rain,240,2012-11-18 21:00:00
10:00 PM,51.8,50.0,94,29.95,1.9,Variable,1.2,-,N/A,,Mostly Cloudy,0,2012-11-18 21:00:00
10:30 PM,51.8,50.0,94,29.95,1.9,Variable,1.2,-,N/A,,Mostly Cloudy,0,2012-11-18 21:30:00
11:00 PM,51.8,50.0,94,29.95,1.9,Calm,Calm,-,N/A,,Mostly Cloudy,0,2012-11-18 22:00:00
11:30 PM,51.8,50.0,94,29.95,2.5,Calm,Calm,-,N/A,,Mostly Cloudy,0,2012-11-18 22:30:00